| time (UTC) | temp C | wind direction | speed KPH | gust KPH | rain 1hr cm | rain 24hr cm | rain mn cm | humidity % | barometer mb |
| 20260504031528 | 11 | 90 | 0.0 | 0.0 | 0.00 | 0.10 | 0.00 | 92 | 1011.3 |
| 20260504030037 | 11 | 91 | 0.0 | 0.0 | 0.00 | 0.10 | 0.00 | 92 | 1011.4 |
| 20260504024527 | 11 | 92 | 0.0 | 0.0 | 0.00 | 0.10 | 0.00 | 91 | 1011.4 |
| 20260504023025 | 11 | 91 | 0.0 | 0.0 | 0.00 | 0.10 | 0.00 | 91 | 1011.5 |
| 20260504021525 | 11 | 91 | 0.0 | 0.0 | 0.00 | 0.10 | 0.00 | 91 | 1011.5 |
| 20260504020028 | 11 | 92 | 0.0 | 0.0 | 0.00 | 0.10 | 0.00 | 91 | 1011.4 |
| 20260504014523 | 12 | 196 | 0.0 | 0.0 | 0.00 | 0.10 | 0.00 | 91 | 1011.5 |
| 20260504013020 | 12 | 211 | 0.0 | 0.0 | 0.00 | 0.10 | 0.00 | 91 | 1011.4 |
| 20260504011522 | 12 | 211 | 0.0 | 0.0 | 0.00 | 0.10 | 0.00 | 91 | 1011.4 |
| 20260504010018 | 12 | 207 | 0.0 | 0.0 | 0.00 | 0.10 | 0.00 | 91 | 1011.4 |
| 20260504004521 | 12 | 207 | 0.0 | 0.0 | 0.00 | 0.10 | 0.00 | 90 | 1011.2 |
| 20260504003015 | 12 | 207 | 0.0 | 0.0 | 0.00 | 0.10 | 0.00 | 90 | 1011.3 |
| 20260504001514 | 12 | 207 | 0.0 | 0.0 | 0.00 | 0.10 | 0.00 | 90 | 1011.4 |
| 20260504000013 | 13 | 207 | 0.0 | 0.0 | 0.00 | 0.10 | 0.00 | 90 | 1011.4 |
| 20260503234512 | 13 | 207 | 0.0 | 0.0 | 0.00 | 0.10 | 0.00 | 90 | 1011.5 |
| 20260503233010 | 13 | 207 | 0.0 | 0.0 | 0.00 | 0.10 | 0.00 | 89 | 1011.4 |
| 20260503231515 | 13 | 207 | 0.0 | 0.0 | 0.00 | 0.10 | 0.00 | 89 | 1011.3 |
| 20260503230007 | 13 | 207 | 0.0 | 0.0 | 0.00 | 0.10 | 0.00 | 89 | 1011.2 |
| 20260503224504 | 14 | 207 | 0.0 | 0.0 | 0.00 | 0.10 | 0.00 | 89 | 1011.4 |
| 20260503223002 | 14 | 207 | 0.0 | 0.0 | 0.00 | 0.10 | 0.00 | 89 | 1011.3 |
| 20260503221600 | 14 | 215 | 0.0 | 0.0 | 0.00 | 0.10 | 0.00 | 89 | 1011.7 |
| 20260503220105 | 14 | 215 | 0.0 | 0.0 | 0.00 | 0.10 | 0.10 | 89 | 1011.6 |
| 20260503214559 | 14 | 215 | 0.0 | 0.0 | 0.00 | 0.10 | 0.10 | 89 | 1011.4 |
| 20260503213133 | 14 | 215 | 0.0 | 0.0 | 0.00 | 0.10 | 0.10 | 88 | 1011.3 |
| 20260503211620 | 14 | 215 | 0.0 | 0.0 | 0.00 | 0.10 | 0.10 | 88 | 1011.3 |
| 20260503210057 | 14 | 215 | 0.0 | 0.0 | 0.00 | 0.10 | 0.10 | 88 | 1011.4 |
| 20260503204617 | 15 | 215 | 0.0 | 0.0 | 0.00 | 0.10 | 0.10 | 88 | 1011.3 |
| 20260503203106 | 15 | 215 | 0.0 | 0.0 | 0.00 | 0.10 | 0.10 | 88 | 1011.4 |
| 20260503201556 | 15 | 215 | 0.0 | 0.0 | 0.00 | 0.10 | 0.10 | 88 | 1011.2 |
| 20260503200055 | 15 | 213 | 0.0 | 0.0 | 0.00 | 0.46 | 0.10 | 88 | 1011.1 |
| 20260503194555 | 15 | 213 | 0.0 | 0.0 | 0.00 | 0.46 | 0.10 | 89 | 1011.0 |
| 20260503193055 | 15 | 191 | 0.0 | 0.0 | 0.00 | 0.46 | 0.10 | 88 | 1010.9 |
| 20260503191603 | 15 | 191 | 0.0 | 0.0 | 0.00 | 0.46 | 0.10 | 88 | 1010.9 |
| 20260503190053 | 16 | 191 | 0.0 | 0.0 | 0.00 | 0.89 | 0.10 | 87 | 1010.8 |
| 20260503184614 | 16 | 191 | 0.0 | 0.0 | 0.00 | 0.89 | 0.10 | 87 | 1010.7 |
| 20260503183054 | 16 | 191 | 0.0 | 0.0 | 0.00 | 0.89 | 0.10 | 86 | 1010.7 |
| 20260503181552 | 16 | 191 | 0.0 | 0.0 | 0.00 | 0.89 | 0.10 | 86 | 1010.7 |
| 20260503180052 | 16 | 191 | 0.0 | 0.0 | 0.00 | 0.89 | 0.10 | 86 | 1010.7 |
| 20260503174654 | 16 | 191 | 0.0 | 0.0 | 0.00 | 0.89 | 0.10 | 86 | 1010.7 |
| 20260503174550 | 16 | 191 | 0.0 | 0.0 | 0.00 | 4.39 | 0.10 | 86 | 1010.8 |
| 20260503174037 | 16 | 191 | 0.0 | 0.0 | 0.00 | 4.39 | 0.10 | 86 | 1010.7 |
| 20260503173549 | 16 | 191 | 0.0 | 0.0 | 0.00 | 4.39 | 0.10 | 86 | 1010.7 |
| 20260503173154 | 16 | 191 | 0.0 | 0.0 | 0.00 | 0.89 | 0.10 | 86 | 1010.6 |
| 20260503173053 | 16 | 191 | 0.0 | 0.0 | 0.00 | 4.39 | 0.10 | 86 | 1010.7 |
| 20260503172544 | 16 | 293 | 0.0 | 0.0 | 0.00 | 4.39 | 0.10 | 86 | 1010.7 |
| 20260503172051 | 16 | 293 | 0.0 | 0.0 | 0.00 | 4.39 | 0.10 | 86 | 1010.7 |
| 20260503171644 | 16 | 293 | 0.0 | 0.0 | 0.00 | 0.89 | 0.10 | 86 | 1010.6 |
| 20260503171543 | 16 | 293 | 0.0 | 0.0 | 0.00 | 4.39 | 0.10 | 86 | 1010.8 |
| 20260503171051 | 16 | 294 | 0.0 | 0.0 | 0.00 | 4.39 | 0.10 | 86 | 1010.7 |
| 20260503170604 | 16 | 294 | 0.0 | 0.0 | 0.00 | 4.39 | 0.10 | 86 | 1010.7 |
| 20260503170151 | 16 | 296 | 0.0 | 0.0 | 0.00 | 0.89 | 0.10 | 86 | 1010.6 |
| 20260503160153 | 15 | 340 | 0.0 | 0.0 | 0.03 | 0.89 | 0.10 | 89 | 1011.0 |
| 20260503150550 | 15 | 294 | 0.0 | 0.0 | 0.00 | 4.29 | 0.08 | 88 | 1011.0 |
| 20260503150139 | 15 | 295 | 0.0 | 0.0 | 0.00 | 0.86 | 0.08 | 88 | 1010.9 |
| 20260503140146 | 16 | 291 | 0.0 | 0.0 | 0.05 | 0.86 | 0.08 | 85 | 1011.0 |
| 20260503131044 | 17 | 296 | 0.0 | 0.0 | 0.30 | 4.19 | 0.05 | 81 | 1011.2 |
| 20260503130557 | 17 | 298 | 0.0 | 0.0 | 0.30 | 4.19 | 0.05 | 80 | 1011.3 |
| 20260503130145 | 17 | 295 | 0.0 | 0.0 | 0.05 | 0.81 | 0.05 | 79 | 1011.1 |
| 20260503120151 | 20 | 286 | 0.0 | 0.0 | 0.00 | 0.79 | 0.00 | 62 | 1010.9 |
| 20260503110544 | 20 | 289 | 0.0 | 0.0 | 0.00 | 3.91 | 0.00 | 58 | 1011.1 |
| 20260503110151 | 20 | 284 | 0.0 | 0.0 | 0.00 | 0.79 | 0.00 | 57 | 1010.9 |
| 20260503100103 | 21 | 155 | 0.0 | 0.0 | 0.00 | 3.91 | 0.00 | 58 | 1010.7 |
| 20260503081556 | 18 | 142 | 0.0 | 0.0 | 0.00 | 0.79 | 0.00 | 72 | 1010.7 |
| 20260503071554 | 15 | 38 | 0.0 | 0.0 | 0.00 | 0.79 | 0.00 | 92 | 1010.5 |
| 20260503054530 | 13 | 61 | 0.0 | 0.0 | 0.00 | 0.79 | 0.00 | 96 | 1010.7 |
| 20260503053021 | 13 | 107 | 0.0 | 0.0 | 0.00 | 0.79 | 0.00 | 95 | 1010.7 |
| 20260503051525 | 12 | 107 | 0.0 | 0.0 | 0.00 | 0.79 | 0.00 | 96 | 1010.8 |
| 20260503050018 | 12 | 107 | 0.0 | 0.0 | 0.00 | 0.79 | 0.00 | 96 | 1010.7 |
| 20260503044516 | 12 | 107 | 0.0 | 0.0 | 0.00 | 0.79 | 0.00 | 95 | 1010.8 |
| 20260503043021 | 13 | 105 | 0.0 | 0.0 | 0.00 | 0.79 | 0.00 | 95 | 1010.7 |
| 20260503041524 | 13 | 98 | 0.0 | 0.0 | 0.00 | 0.79 | 0.00 | 95 | 1010.7 |
| 20260503040017 | 13 | 96 | 0.0 | 0.0 | 0.00 | 0.79 | 0.00 | 95 | 1010.7 |
| 20260503034514 | 13 | 92 | 0.0 | 0.0 | 0.00 | 0.79 | 0.00 | 95 | 1010.7 |
| 20260503033013 | 13 | 92 | 0.0 | 0.0 | 0.00 | 0.79 | 0.00 | 95 | 1010.8 |